Year,Month,Day,Hour,Minute,Value (Times are PST for barometer in hPa)
2013,09,28,00,00,1007.21
2013,09,28,00,01,1007.21
2013,09,28,00,02,1007.18
2013,09,28,00,03,1007.18
2013,09,28,00,04,1007.18
2013,09,28,00,05,1007.15
2013,09,28,00,06,1007.15
2013,09,28,00,07,1007.08
2013,09,28,00,08,1007.11
2013,09,28,00,09,1007.15
2013,09,28,00,10,1007.08
2013,09,28,00,11,1007.11
2013,09,28,00,12,1007.11
2013,09,28,00,13,1007.11
2013,09,28,00,14,1007.08
2013,09,28,00,15,1007.04
2013,09,28,00,16,1007.01
2013,09,28,00,17,1007.01
2013,09,28,00,18,1007.01
2013,09,28,00,19,1006.94
2013,09,28,00,20,1006.98
2013,09,28,00,21,1006.98
2013,09,28,00,22,1007.01
2013,09,28,00,23,1006.98
2013,09,28,00,24,1006.94
2013,09,28,00,25,1006.98
2013,09,28,00,26,1007.01
2013,09,28,00,27,1006.98
2013,09,28,00,28,1006.98
2013,09,28,00,29,1006.94
2013,09,28,00,30,1006.94
2013,09,28,00,31,1006.94
2013,09,28,00,32,1006.91
2013,09,28,00,33,1006.88
2013,09,28,00,34,1006.88
2013,09,28,00,35,1006.88
2013,09,28,00,36,1006.84
2013,09,28,00,37,1006.74
2013,09,28,00,38,1006.74
2013,09,28,00,39,1006.74
2013,09,28,00,40,1006.64
2013,09,28,00,41,1006.67
2013,09,28,00,42,1006.64
2013,09,28,00,43,1006.64
2013,09,28,00,44,1006.60
2013,09,28,00,45,1006.60
2013,09,28,00,46,1006.54
2013,09,28,00,47,1006.50
2013,09,28,00,48,1006.47
2013,09,28,00,49,1006.44
2013,09,28,00,50,1006.40
2013,09,28,00,51,1006.40
2013,09,28,00,52,1006.47
2013,09,28,00,53,1006.40
2013,09,28,00,54,1006.37
2013,09,28,00,55,1006.37
2013,09,28,00,56,1006.37
2013,09,28,00,57,1006.37
2013,09,28,00,58,1006.30
2013,09,28,00,59,1006.30
2013,09,28,01,00,1006.27
2013,09,28,01,01,1006.27
2013,09,28,01,02,1006.27
2013,09,28,01,03,1006.23
2013,09,28,01,04,1006.20
2013,09,28,01,05,1006.16
2013,09,28,01,06,1006.16
2013,09,28,01,07,1006.16
2013,09,28,01,08,1006.13
2013,09,28,01,09,1006.10
2013,09,28,01,10,1006.06
2013,09,28,01,11,1006.03
2013,09,28,01,12,1006.03
2013,09,28,01,13,1006.03
2013,09,28,01,14,1005.99
2013,09,28,01,15,1005.99
2013,09,28,01,16,1005.99
2013,09,28,01,17,1006.03
2013,09,28,01,18,1006.03
2013,09,28,01,19,1005.96
2013,09,28,01,20,1005.93
2013,09,28,01,21,1005.86
2013,09,28,01,22,1005.83
2013,09,28,01,23,1005.76
2013,09,28,01,24,1005.76
2013,09,28,01,25,1005.79
2013,09,28,01,26,1005.76
2013,09,28,01,27,1005.79
2013,09,28,01,28,1005.69
2013,09,28,01,29,1005.69
2013,09,28,01,30,1005.66
2013,09,28,01,31,1005.59
2013,09,28,01,32,1005.55
2013,09,28,01,33,1005.55
2013,09,28,01,34,1005.52
2013,09,28,01,35,1005.45
2013,09,28,01,36,1005.39
2013,09,28,01,37,1005.39
2013,09,28,01,38,1005.39
2013,09,28,01,39,1005.35
2013,09,28,01,40,1005.28
2013,09,28,01,41,1005.28
2013,09,28,01,42,1005.25
2013,09,28,01,43,1005.22
2013,09,28,01,44,1005.22
2013,09,28,01,45,1005.15
2013,09,28,01,46,1005.15
2013,09,28,01,47,1005.18
2013,09,28,01,48,1005.18
2013,09,28,01,49,1005.15
2013,09,28,01,50,1005.11
2013,09,28,01,51,1005.11
2013,09,28,01,52,1005.01
2013,09,28,01,53,1005.08
2013,09,28,01,54,1005.05
2013,09,28,01,55,1005.05
2013,09,28,01,56,1005.01
2013,09,28,01,57,1005.01
2013,09,28,01,58,1005.01
2013,09,28,01,59,1005.01
2013,09,28,02,00,1004.98
2013,09,28,02,01,1004.95
2013,09,28,02,02,1004.98
2013,09,28,02,03,1005.01
2013,09,28,02,04,1004.91
2013,09,28,02,05,1004.88
2013,09,28,02,06,1004.84
2013,09,28,02,07,1004.84
2013,09,28,02,08,1004.78
2013,09,28,02,09,1004.78
2013,09,28,02,10,1004.78
2013,09,28,02,11,1004.67
2013,09,28,02,12,1004.64
2013,09,28,02,13,1004.67
2013,09,28,02,14,1004.64
2013,09,28,02,15,1004.67
2013,09,28,02,16,1004.64
2013,09,28,02,17,1004.64
2013,09,28,02,18,1004.64
2013,09,28,02,19,1004.61
2013,09,28,02,20,1004.61
2013,09,28,02,21,1004.57
2013,09,28,02,22,1004.54
2013,09,28,02,23,1004.50
2013,09,28,02,24,1004.54
2013,09,28,02,25,1004.47
2013,09,28,02,26,1004.50
2013,09,28,02,27,1004.50
2013,09,28,02,28,1004.40
2013,09,28,02,29,1004.30
2013,09,28,02,30,1004.27
2013,09,28,02,31,1004.23
2013,09,28,02,32,1004.30
2013,09,28,02,33,1004.27
2013,09,28,02,34,1004.22
2013,09,28,02,35,1004.06
2013,09,28,02,36,1004.00
2013,09,28,02,37,1003.96
2013,09,28,02,38,1004.00
2013,09,28,02,39,1003.96
2013,09,28,02,40,1003.90
2013,09,28,02,41,1003.86
2013,09,28,02,42,1003.86
2013,09,28,02,43,1003.93
2013,09,28,02,44,1003.93
2013,09,28,02,45,1003.90
2013,09,28,02,46,1003.86
2013,09,28,02,47,1003.83
2013,09,28,02,48,1003.79
2013,09,28,02,49,1003.73
2013,09,28,02,50,1003.69
2013,09,28,02,51,1003.66
2013,09,28,02,52,1003.62
2013,09,28,02,53,1003.59
2013,09,28,02,54,1003.52
2013,09,28,02,55,1003.52
2013,09,28,02,56,1003.46
2013,09,28,02,57,1003.46
2013,09,28,02,58,1003.42
2013,09,28,02,59,1003.39
2013,09,28,03,00,1003.35
2013,09,28,03,01,1003.32
2013,09,28,03,02,1003.29
2013,09,28,03,03,1003.25
2013,09,28,03,04,1003.22
2013,09,28,03,05,1003.15
2013,09,28,03,06,1003.18
2013,09,28,03,07,1003.12
2013,09,28,03,08,1003.12
2013,09,28,03,09,1003.08
2013,09,28,03,10,1003.05
2013,09,28,03,11,1003.05
2013,09,28,03,12,1003.01
2013,09,28,03,13,1002.95
2013,09,28,03,14,1002.95
2013,09,28,03,15,1002.85
2013,09,28,03,16,1002.85
2013,09,28,03,17,1002.85
2013,09,28,03,18,1002.85
2013,09,28,03,19,1002.81
2013,09,28,03,20,1002.81
2013,09,28,03,21,1002.78
2013,09,28,03,22,1002.74
2013,09,28,03,23,1002.74
2013,09,28,03,24,1002.74
2013,09,28,03,25,1002.71
2013,09,28,03,26,1002.64
2013,09,28,03,27,1002.64
2013,09,28,03,28,1002.64
2013,09,28,03,29,1002.61
2013,09,28,03,30,1002.61
2013,09,28,03,31,1002.54
2013,09,28,03,32,1002.51
2013,09,28,03,33,1002.51
2013,09,28,03,34,1002.47
2013,09,28,03,35,1002.44
2013,09,28,03,36,1002.44
2013,09,28,03,37,1002.37
2013,09,28,03,38,1002.41
2013,09,28,03,39,1002.41
2013,09,28,03,40,1002.37
2013,09,28,03,41,1002.27
2013,09,28,03,42,1002.27
2013,09,28,03,43,1002.24
2013,09,28,03,44,1002.20
2013,09,28,03,45,1002.24
2013,09,28,03,46,1002.11
2013,09,28,03,47,1002.17
2013,09,28,03,48,1002.13
2013,09,28,03,49,1002.17
2013,09,28,03,50,1002.17
2013,09,28,03,51,1002.20
2013,09,28,03,52,1002.10
2013,09,28,03,53,1002.13
2013,09,28,03,54,1002.10
2013,09,28,03,55,1002.07
2013,09,28,03,56,1002.00
2013,09,28,03,57,1002.07
2013,09,28,03,58,1002.03
2013,09,28,03,59,1002.07
2013,09,28,04,00,1001.93
2013,09,28,04,01,1001.90
2013,09,28,04,02,1001.90
2013,09,28,04,03,1001.90
2013,09,28,04,04,1001.90
2013,09,28,04,05,1001.80
2013,09,28,04,06,1001.73
2013,09,28,04,07,1001.69
2013,09,28,04,08,1001.69
2013,09,28,04,09,1001.66
2013,09,28,04,10,1001.59
2013,09,28,04,11,1001.59
2013,09,28,04,12,1001.56
2013,09,28,04,13,1001.52
2013,09,28,04,14,1001.52
2013,09,28,04,15,1001.46
2013,09,28,04,16,1001.42
2013,09,28,04,17,1001.42
2013,09,28,04,18,1001.39
2013,09,28,04,19,1001.42
2013,09,28,04,20,1001.42
2013,09,28,04,21,1001.39
2013,09,28,04,22,1001.32
2013,09,28,04,23,1001.32
2013,09,28,04,24,1001.22
2013,09,28,04,25,1001.19
2013,09,28,04,26,1001.19
2013,09,28,04,27,1001.08
2013,09,28,04,28,1001.08
2013,09,28,04,29,1001.08
2013,09,28,04,30,1001.08
2013,09,28,04,31,1001.05
2013,09,28,04,32,1000.98
2013,09,28,04,33,1000.95
2013,09,28,04,34,1000.92
2013,09,28,04,35,1000.85
2013,09,28,04,36,1000.81
2013,09,28,04,37,1000.75
2013,09,28,04,38,1000.75
2013,09,28,04,39,1000.75
2013,09,28,04,40,1000.68
2013,09,28,04,41,1000.68
2013,09,28,04,42,1000.61
2013,09,28,04,43,1000.58
2013,09,28,04,44,1000.54
2013,09,28,04,45,1000.54
2013,09,28,04,46,1000.48
2013,09,28,04,47,1000.44
2013,09,28,04,48,1000.48
2013,09,28,04,49,1000.48
2013,09,28,04,50,1000.44
2013,09,28,04,51,1000.37
2013,09,28,04,52,1000.37
2013,09,28,04,53,1000.31
2013,09,28,04,54,1000.31
2013,09,28,04,55,1000.27
2013,09,28,04,56,1000.24
2013,09,28,04,57,1000.20
2013,09,28,04,58,1000.17
2013,09,28,04,59,1000.17
2013,09,28,05,00,1000.20
2013,09,28,05,01,1000.17
2013,09,28,05,02,1000.17
2013,09,28,05,03,1000.07
2013,09,28,05,04,1000.10
2013,09,28,05,05,1000.10
2013,09,28,05,06,1000.03
2013,09,28,05,07,1000.00
2013,09,28,05,08,999.97
2013,09,28,05,09,1000.00
2013,09,28,05,10,999.93
2013,09,28,05,11,999.87
2013,09,28,05,12,999.83
2013,09,28,05,13,999.83
2013,09,28,05,14,999.83
2013,09,28,05,15,999.83
2013,09,28,05,16,999.80
2013,09,28,05,17,999.80
2013,09,28,05,18,999.73
2013,09,28,05,19,999.70
2013,09,28,05,20,999.66
2013,09,28,05,21,999.63
2013,09,28,05,22,999.59
2013,09,28,05,23,999.56
2013,09,28,05,24,999.53
2013,09,28,05,25,999.49
2013,09,28,05,26,999.46
2013,09,28,05,27,999.46
2013,09,28,05,28,999.43
2013,09,28,05,29,999.39
2013,09,28,05,30,999.43
2013,09,28,05,31,999.46
2013,09,28,05,32,999.39
2013,09,28,05,33,999.32
2013,09,28,05,34,999.32
2013,09,28,05,35,999.29
2013,09,28,05,36,999.26
2013,09,28,05,37,999.22
2013,09,28,05,38,999.26
2013,09,28,05,39,999.19
2013,09,28,05,40,999.19
2013,09,28,05,41,999.15
2013,09,28,05,42,999.19
2013,09,28,05,43,999.15
2013,09,28,05,44,999.15
2013,09,28,05,45,999.12
2013,09,28,05,46,999.15
2013,09,28,05,47,999.05
2013,09,28,05,48,999.09
2013,09,28,05,49,999.09
2013,09,28,05,50,999.09
2013,09,28,05,51,999.05
2013,09,28,05,52,999.09
2013,09,28,05,53,999.09
2013,09,28,05,54,999.12
2013,09,28,05,55,999.09
2013,09,28,05,56,999.15
2013,09,28,05,57,999.12
2013,09,28,05,58,999.09
2013,09,28,05,59,999.09
2013,09,28,06,00,999.05
2013,09,28,06,01,999.05
2013,09,28,06,02,999.05
2013,09,28,06,03,999.05
2013,09,28,06,04,999.05
2013,09,28,06,05,999.05
2013,09,28,06,06,999.05
2013,09,28,06,07,999.02
2013,09,28,06,08,999.02
2013,09,28,06,09,998.95
2013,09,28,06,10,998.88
2013,09,28,06,11,998.95
2013,09,28,06,12,998.85
2013,09,28,06,13,998.78
2013,09,28,06,14,998.82
2013,09,28,06,15,998.75
2013,09,28,06,16,998.61
2013,09,28,06,17,998.58
2013,09,28,06,18,998.51
2013,09,28,06,19,998.44
2013,09,28,06,20,998.41
2013,09,28,06,21,998.41
2013,09,28,06,22,998.34
2013,09,28,06,23,998.31
2013,09,28,06,24,998.24
2013,09,28,06,25,998.21
2013,09,28,06,26,998.14
2013,09,28,06,27,998.07
2013,09,28,06,28,998.04
2013,09,28,06,29,998.00
2013,09,28,06,30,997.97
2013,09,28,06,31,998.00
2013,09,28,06,32,998.00
2013,09,28,06,33,997.94
2013,09,28,06,34,997.90
2013,09,28,06,35,997.80
2013,09,28,06,36,997.80
2013,09,28,06,37,997.73
2013,09,28,06,38,997.63
2013,09,28,06,39,997.63
2013,09,28,06,40,997.63
2013,09,28,06,41,997.63
2013,09,28,06,42,997.60
2013,09,28,06,43,997.50
2013,09,28,06,44,997.50
2013,09,28,06,45,997.39
2013,09,28,06,46,997.36
2013,09,28,06,47,997.33
2013,09,28,06,48,997.29
2013,09,28,06,49,997.22
2013,09,28,06,50,997.26
2013,09,28,06,51,997.19
2013,09,28,06,52,997.22
2013,09,28,06,53,997.16
2013,09,28,06,54,997.12
2013,09,28,06,55,997.12
2013,09,28,06,56,997.09
2013,09,28,06,57,997.02
2013,09,28,06,58,996.99
2013,09,28,06,59,996.95
2013,09,28,07,00,996.99
2013,09,28,07,01,996.95
2013,09,28,07,02,996.92
2013,09,28,07,03,996.85
2013,09,28,07,04,996.85
2013,09,28,07,05,996.82
2013,09,28,07,06,996.82
2013,09,28,07,07,996.82
2013,09,28,07,08,996.82
2013,09,28,07,09,996.78
2013,09,28,07,10,996.72
2013,09,28,07,11,996.72
2013,09,28,07,12,996.68
2013,09,28,07,13,996.68
2013,09,28,07,14,996.65
2013,09,28,07,15,996.58
2013,09,28,07,16,996.51
2013,09,28,07,17,996.48
2013,09,28,07,18,996.48
2013,09,28,07,19,996.41
2013,09,28,07,20,996.41
2013,09,28,07,21,996.34
2013,09,28,07,22,996.24
2013,09,28,07,23,996.21
2013,09,28,07,24,996.17
2013,09,28,07,25,996.17
2013,09,28,07,26,996.14
2013,09,28,07,27,996.14
2013,09,28,07,28,996.02
2013,09,28,07,29,996.01
2013,09,28,07,30,996.01
2013,09,28,07,31,996.04
2013,09,28,07,32,996.04
2013,09,28,07,33,996.04
2013,09,28,07,34,996.04
2013,09,28,07,35,995.97
2013,09,28,07,36,995.97
2013,09,28,07,37,995.94
2013,09,28,07,38,995.94
2013,09,28,07,39,995.87
2013,09,28,07,40,995.87
2013,09,28,07,41,995.80
2013,09,28,07,42,995.73
2013,09,28,07,43,995.73
2013,09,28,07,44,995.70
2013,09,28,07,45,995.67
2013,09,28,07,46,995.67
2013,09,28,07,47,995.67
2013,09,28,07,48,995.67
2013,09,28,07,49,995.67
2013,09,28,07,50,995.67
2013,09,28,07,51,995.67
2013,09,28,07,52,995.56
2013,09,28,07,53,995.56
2013,09,28,07,54,995.50
2013,09,28,07,55,995.50
2013,09,28,07,56,995.50
2013,09,28,07,57,995.50
2013,09,28,07,58,995.46
2013,09,28,07,59,995.40
2013,09,28,08,00,995.36
2013,09,28,08,01,995.40
2013,09,28,08,02,995.33
2013,09,28,08,03,995.23
2013,09,28,08,04,995.23
2013,09,28,08,05,995.19
2013,09,28,08,06,995.12
2013,09,28,08,07,995.16
2013,09,28,08,08,995.12
2013,09,28,08,09,995.09
2013,09,28,08,10,995.06
2013,09,28,08,11,994.99
2013,09,28,08,12,994.99
2013,09,28,08,13,995.02
2013,09,28,08,14,995.02
2013,09,28,08,15,995.02
2013,09,28,08,16,995.02
2013,09,28,08,17,994.96
2013,09,28,08,18,994.96
2013,09,28,08,19,994.96
2013,09,28,08,20,994.96
2013,09,28,08,21,994.92
2013,09,28,08,22,994.92
2013,09,28,08,23,994.85
2013,09,28,08,24,994.82
2013,09,28,08,25,994.75
2013,09,28,08,26,994.68
2013,09,28,08,27,994.65
2013,09,28,08,28,994.58
2013,09,28,08,29,994.55
2013,09,28,08,30,994.48
2013,09,28,08,31,994.52
2013,09,28,08,32,994.48
2013,09,28,08,33,994.41
2013,09,28,08,34,994.35
2013,09,28,08,35,994.35
2013,09,28,08,36,994.28
2013,09,28,08,37,994.24
2013,09,28,08,38,994.21
2013,09,28,08,39,994.21
2013,09,28,08,40,994.24
2013,09,28,08,41,994.18
2013,09,28,08,42,994.11
2013,09,28,08,43,994.11
2013,09,28,08,44,994.07
2013,09,28,08,45,994.07
2013,09,28,08,46,994.01
2013,09,28,08,47,993.94
2013,09,28,08,48,993.91
2013,09,28,08,49,993.87
2013,09,28,08,50,993.80
2013,09,28,08,51,993.80
2013,09,28,08,52,993.77
2013,09,28,08,53,993.74
2013,09,28,08,54,993.70
2013,09,28,08,55,993.70
2013,09,28,08,56,993.77
2013,09,28,08,57,993.80
2013,09,28,08,58,993.74
2013,09,28,08,59,993.74
2013,09,28,09,00,993.70
2013,09,28,09,01,993.67
2013,09,28,09,02,993.67
2013,09,28,09,03,993.67
2013,09,28,09,04,993.70
2013,09,28,09,05,993.63
2013,09,28,09,06,993.57
2013,09,28,09,07,993.60
2013,09,28,09,08,993.53
2013,09,28,09,09,993.53
2013,09,28,09,10,993.50
2013,09,28,09,11,993.43
2013,09,28,09,12,993.36
2013,09,28,09,13,993.40
2013,09,28,09,14,993.40
2013,09,28,09,15,993.36
2013,09,28,09,16,993.36
2013,09,28,09,17,993.33
2013,09,28,09,18,993.26
2013,09,28,09,19,993.26
2013,09,28,09,20,993.23
2013,09,28,09,21,993.19
2013,09,28,09,22,993.13
2013,09,28,09,23,993.09
2013,09,28,09,24,993.13
2013,09,28,09,25,993.13
2013,09,28,09,26,993.09
2013,09,28,09,27,993.03
2013,09,28,09,28,993.06
2013,09,28,09,29,993.06
2013,09,28,09,30,992.99
2013,09,28,09,31,992.96
2013,09,28,09,32,992.92
2013,09,28,09,33,992.89
2013,09,28,09,34,992.89
2013,09,28,09,35,992.89
2013,09,28,09,36,992.89
2013,09,28,09,37,992.92
2013,09,28,09,38,992.86
2013,09,28,09,39,992.86
2013,09,28,09,40,992.82
2013,09,28,09,41,992.82
2013,09,28,09,42,992.75
2013,09,28,09,43,992.75
2013,09,28,09,44,992.72
2013,09,28,09,45,992.69
2013,09,28,09,46,992.72
2013,09,28,09,47,992.65
2013,09,28,09,48,992.62
2013,09,28,09,49,992.55
2013,09,28,09,50,992.52
2013,09,28,09,51,992.48
2013,09,28,09,52,992.48
2013,09,28,09,53,992.52
2013,09,28,09,54,992.45
2013,09,28,09,55,992.42
2013,09,28,09,56,992.42
2013,09,28,09,57,992.45
2013,09,28,09,58,992.42
2013,09,28,09,59,992.35
2013,09,28,10,00,992.31
2013,09,28,10,01,992.25
2013,09,28,10,02,992.28
2013,09,28,10,03,992.28
2013,09,28,10,04,992.25
2013,09,28,10,05,992.21
2013,09,28,10,06,992.18
2013,09,28,10,07,992.11
2013,09,28,10,08,992.11
2013,09,28,10,09,992.04
2013,09,28,10,10,992.04
2013,09,28,10,11,991.98
2013,09,28,10,12,991.98
2013,09,28,10,13,991.94
2013,09,28,10,14,991.91
2013,09,28,10,15,991.87
2013,09,28,10,16,991.84
2013,09,28,10,17,991.84
2013,09,28,10,18,991.70
2013,09,28,10,19,991.64
2013,09,28,10,20,991.57
2013,09,28,10,21,991.50
2013,09,28,10,22,991.50
2013,09,28,10,23,991.47
2013,09,28,10,24,991.47
2013,09,28,10,25,991.43
2013,09,28,10,26,991.40
2013,09,28,10,27,991.37
2013,09,28,10,28,991.33
2013,09,28,10,29,991.37
2013,09,28,10,30,991.37
2013,09,28,10,31,991.33
2013,09,28,10,32,991.30
2013,09,28,10,33,991.30
2013,09,28,10,34,991.30
2013,09,28,10,35,991.20
2013,09,28,10,36,991.23
2013,09,28,10,37,991.20
2013,09,28,10,38,991.13
2013,09,28,10,39,991.09
2013,09,28,10,40,991.03
2013,09,28,10,41,990.99
2013,09,28,10,42,990.96
2013,09,28,10,43,990.93
2013,09,28,10,44,990.86
2013,09,28,10,45,990.82
2013,09,28,10,46,990.79
2013,09,28,10,47,990.79
2013,09,28,10,48,990.72
2013,09,28,10,49,990.59
2013,09,28,10,50,990.59
2013,09,28,10,51,990.55
2013,09,28,10,52,990.52
2013,09,28,10,53,990.52
2013,09,28,10,54,990.49
2013,09,28,10,55,990.49
2013,09,28,10,56,990.42
2013,09,28,10,57,990.45
2013,09,28,10,58,990.42
2013,09,28,10,59,990.38
2013,09,28,11,00,990.45
2013,09,28,11,01,990.38
2013,09,28,11,02,990.35
2013,09,28,11,03,990.35
2013,09,28,11,04,990.25
2013,09,28,11,05,990.21
2013,09,28,11,06,990.21
2013,09,28,11,07,990.21
2013,09,28,11,08,990.18
2013,09,28,11,09,990.18
2013,09,28,11,10,990.18
2013,09,28,11,11,990.18
2013,09,28,11,12,990.18
2013,09,28,11,13,990.18
2013,09,28,11,14,990.11
2013,09,28,11,15,990.11
2013,09,28,11,16,990.11
2013,09,28,11,17,990.11
2013,09,28,11,18,990.11
2013,09,28,11,19,990.15
2013,09,28,11,20,990.08
2013,09,28,11,21,990.04
2013,09,28,11,22,990.08
2013,09,28,11,23,990.08
2013,09,28,11,24,990.11
2013,09,28,11,25,990.21
2013,09,28,11,26,990.18
2013,09,28,11,27,990.09
2013,09,28,11,28,990.01
2013,09,28,11,29,990.01
2013,09,28,11,30,990.04
2013,09,28,11,31,990.04
2013,09,28,11,32,990.04
2013,09,28,11,33,989.98
2013,09,28,11,34,989.98
2013,09,28,11,35,989.91
2013,09,28,11,36,989.91
2013,09,28,11,37,989.88
2013,09,28,11,38,989.88
2013,09,28,11,39,989.88
2013,09,28,11,40,989.84
2013,09,28,11,41,989.81
2013,09,28,11,42,989.81
2013,09,28,11,43,989.77
2013,09,28,11,44,989.74
2013,09,28,11,45,989.67
2013,09,28,11,46,989.60
2013,09,28,11,47,989.57
2013,09,28,11,48,989.50
2013,09,28,11,49,989.47
2013,09,28,11,50,989.44
2013,09,28,11,51,989.40
2013,09,28,11,52,989.33
2013,09,28,11,53,989.33
2013,09,28,11,54,989.27
2013,09,28,11,55,989.27
2013,09,28,11,56,989.27
2013,09,28,11,57,989.20
2013,09,28,11,58,989.10
2013,09,28,11,59,989.10
2013,09,28,12,00,989.01
2013,09,28,12,01,989.00
2013,09,28,12,02,989.03
2013,09,28,12,03,989.10
2013,09,28,12,04,989.10
2013,09,28,12,05,989.06
2013,09,28,12,06,989.00
2013,09,28,12,07,988.93
2013,09,28,12,08,988.93
2013,09,28,12,09,988.96
2013,09,28,12,10,988.89
2013,09,28,12,11,988.83
2013,09,28,12,12,988.83
2013,09,28,12,13,988.83
2013,09,28,12,14,988.79
2013,09,28,12,15,988.76
2013,09,28,12,16,988.69
2013,09,28,12,17,988.69
2013,09,28,12,18,988.66
2013,09,28,12,19,988.69
2013,09,28,12,20,988.62
2013,09,28,12,21,988.62
2013,09,28,12,22,988.62
2013,09,28,12,23,988.62
2013,09,28,12,24,988.62
2013,09,28,12,25,988.59
2013,09,28,12,26,988.55
2013,09,28,12,27,988.55
2013,09,28,12,28,988.62
2013,09,28,12,29,988.62
2013,09,28,12,30,988.62
2013,09,28,12,31,988.59
2013,09,28,12,32,988.59
2013,09,28,12,33,988.62
2013,09,28,12,34,988.62
2013,09,28,12,35,988.62
2013,09,28,12,36,988.66
2013,09,28,12,37,988.66
2013,09,28,12,38,988.69
2013,09,28,12,39,988.66
2013,09,28,12,40,988.66
2013,09,28,12,41,988.72
2013,09,28,12,42,988.72
2013,09,28,12,43,988.72
2013,09,28,12,44,988.79
2013,09,28,12,45,988.86
2013,09,28,12,46,988.83
2013,09,28,12,47,988.86
2013,09,28,12,48,988.86
2013,09,28,12,49,988.99
2013,09,28,12,50,989.03
2013,09,28,12,51,989.06
2013,09,28,12,52,989.10
2013,09,28,12,53,989.10
2013,09,28,12,54,989.03
2013,09,28,12,55,988.93
2013,09,28,12,56,988.89
2013,09,28,12,57,988.89
2013,09,28,12,58,988.89
2013,09,28,12,59,988.93
2013,09,28,13,00,988.96
2013,09,28,13,01,989.03
2013,09,28,13,02,989.10
2013,09,28,13,03,989.27
2013,09,28,13,04,989.30
2013,09,28,13,05,989.23
2013,09,28,13,06,989.27
2013,09,28,13,07,989.33
2013,09,28,13,08,989.30
2013,09,28,13,09,989.27
2013,09,28,13,10,989.30
2013,09,28,13,11,989.27
2013,09,28,13,12,989.27
2013,09,28,13,13,989.30
2013,09,28,13,14,989.33
2013,09,28,13,15,989.40
2013,09,28,13,16,989.40
2013,09,28,13,17,989.37
2013,09,28,13,18,989.40
2013,09,28,13,19,989.44
2013,09,28,13,20,989.47
2013,09,28,13,21,989.40
2013,09,28,13,22,989.40
2013,09,28,13,23,989.44
2013,09,28,13,24,989.44
2013,09,28,13,25,989.50
2013,09,28,13,26,989.47
2013,09,28,13,27,989.47
2013,09,28,13,28,989.44
2013,09,28,13,29,989.50
2013,09,28,13,30,989.50
2013,09,28,13,31,989.47
2013,09,28,13,32,989.50
2013,09,28,13,33,989.47
2013,09,28,13,34,989.44
2013,09,28,13,35,989.47
2013,09,28,13,36,989.40
2013,09,28,13,37,989.47
2013,09,28,13,38,989.54
2013,09,28,13,39,989.57
2013,09,28,13,40,989.57
2013,09,28,13,41,989.57
2013,09,28,13,42,989.54
2013,09,28,13,43,989.54
2013,09,28,13,44,989.50
2013,09,28,13,45,989.50
2013,09,28,13,46,989.47
2013,09,28,13,47,989.44
2013,09,28,13,48,989.47
2013,09,28,13,49,989.50
2013,09,28,13,50,989.50
2013,09,28,13,51,989.47
2013,09,28,13,52,989.44
2013,09,28,13,53,989.44
2013,09,28,13,54,989.47
2013,09,28,13,55,989.47
2013,09,28,13,56,989.47
2013,09,28,13,57,989.40
2013,09,28,13,58,989.47
2013,09,28,13,59,989.40
2013,09,28,14,00,989.47
2013,09,28,14,01,989.47
2013,09,28,14,02,989.47
2013,09,28,14,03,989.47
2013,09,28,14,04,989.47
2013,09,28,14,05,989.44
2013,09,28,14,06,989.47
2013,09,28,14,07,989.47
2013,09,28,14,08,989.44
2013,09,28,14,09,989.44
2013,09,28,14,10,989.44
2013,09,28,14,11,989.47
2013,09,28,14,12,989.47
2013,09,28,14,13,989.44
2013,09,28,14,14,989.47
2013,09,28,14,15,989.44
2013,09,28,14,16,989.50
2013,09,28,14,17,989.47
2013,09,28,14,18,989.47
2013,09,28,14,19,989.44
2013,09,28,14,20,989.40
2013,09,28,14,21,989.40
2013,09,28,14,22,989.44
2013,09,28,14,23,989.47
2013,09,28,14,24,989.47
2013,09,28,14,25,989.44
2013,09,28,14,26,989.44
2013,09,28,14,27,989.44
2013,09,28,14,28,989.47
2013,09,28,14,29,989.40
2013,09,28,14,30,989.40
2013,09,28,14,31,989.37
2013,09,28,14,32,989.37
2013,09,28,14,33,989.37
2013,09,28,14,34,989.40
2013,09,28,14,35,989.37
2013,09,28,14,36,989.40
2013,09,28,14,37,989.47
2013,09,28,14,38,989.47
2013,09,28,14,39,989.54
2013,09,28,14,40,989.54
2013,09,28,14,41,989.54
2013,09,28,14,42,989.55
2013,09,28,14,43,989.71
2013,09,28,14,44,989.77
2013,09,28,14,45,989.84
2013,09,28,14,46,989.84
2013,09,28,14,47,989.77
2013,09,28,14,48,989.81
2013,09,28,14,49,989.84
2013,09,28,14,50,989.91
2013,09,28,14,51,989.91
2013,09,28,14,52,989.91
2013,09,28,14,53,989.94
2013,09,28,14,54,990.01
2013,09,28,14,55,990.01
2013,09,28,14,56,990.01
2013,09,28,14,57,990.04
2013,09,28,14,58,990.01
2013,09,28,14,59,990.08
2013,09,28,15,00,990.11
2013,09,28,15,01,990.11
2013,09,28,15,02,990.15
2013,09,28,15,03,990.18
2013,09,28,15,04,990.15
2013,09,28,15,05,990.18
2013,09,28,15,06,990.28
2013,09,28,15,07,990.28
2013,09,28,15,08,990.32
2013,09,28,15,09,990.32
2013,09,28,15,10,990.38
2013,09,28,15,11,990.42
2013,09,28,15,12,990.45
2013,09,28,15,13,990.49
2013,09,28,15,14,990.49
2013,09,28,15,15,990.62
2013,09,28,15,16,990.59
2013,09,28,15,17,990.62
2013,09,28,15,18,990.55
2013,09,28,15,19,990.49
2013,09,28,15,20,990.45
2013,09,28,15,21,990.45
2013,09,28,15,22,990.55
2013,09,28,15,23,990.55
2013,09,28,15,24,990.59
2013,09,28,15,25,990.55
2013,09,28,15,26,990.55
2013,09,28,15,27,990.62
2013,09,28,15,28,990.65
2013,09,28,15,29,990.65
2013,09,28,15,30,990.65
2013,09,28,15,31,990.65
2013,09,28,15,32,990.59
2013,09,28,15,33,990.62
2013,09,28,15,34,990.62
2013,09,28,15,35,990.69
2013,09,28,15,36,990.65
2013,09,28,15,37,990.69
2013,09,28,15,38,990.76
2013,09,28,15,39,990.72
2013,09,28,15,40,990.69
2013,09,28,15,41,990.59
2013,09,28,15,42,990.65
2013,09,28,15,43,990.65
2013,09,28,15,44,990.72
2013,09,28,15,45,990.69
2013,09,28,15,46,990.72
2013,09,28,15,47,990.72
2013,09,28,15,48,990.69
2013,09,28,15,49,990.69
2013,09,28,15,50,990.72
2013,09,28,15,51,990.69
2013,09,28,15,52,990.65
2013,09,28,15,53,990.69
2013,09,28,15,54,990.72
2013,09,28,15,55,990.65
2013,09,28,15,56,990.65
2013,09,28,15,57,990.62
2013,09,28,15,58,990.65
2013,09,28,15,59,990.65
2013,09,28,16,00,990.65
2013,09,28,16,01,990.69
2013,09,28,16,02,990.62
2013,09,28,16,03,990.59
2013,09,28,16,04,990.59
2013,09,28,16,05,990.52
2013,09,28,16,06,990.55
2013,09,28,16,07,990.55
2013,09,28,16,08,990.52
2013,09,28,16,09,990.59
2013,09,28,16,10,990.62
2013,09,28,16,11,990.59
2013,09,28,16,12,990.62
2013,09,28,16,13,990.65
2013,09,28,16,14,990.72
2013,09,28,16,15,990.69
2013,09,28,16,16,990.72
2013,09,28,16,17,990.79
2013,09,28,16,18,990.79
2013,09,28,16,19,990.86
2013,09,28,16,20,990.89
2013,09,28,16,21,990.93
2013,09,28,16,22,990.99
2013,09,28,16,23,990.96